Regional Weather Roundup
Issued by NWS

Home | Current Version | Previous Version | Text Only | Print | Product List | Glossary On
Versions: 1 2 3 4 5 6 7 8 9 10 11 12 13 14 15 16 17 18 19 20 21 22 23 24 25 26 27 28 29 30 31 32 33 34 35 36 37 38 39 40 41 42 43 44 45 46 47 48 49 50
000
ASUS45 KABQ 020510
RWRNM
WEATHER ROUNDUP FOR NEW MEXICO
NATIONAL WEATHER SERVICE ALBUQUERQUE NM
1100 PM MDT FRI AUG 01 2014

NOTE: "FAIR" MEANS FEW OR NO CLOUDS BELOW 12,000 FEET AGL WITH NO
       SIGNIFICANT WEATHER OR OBSTRUCTIONS TO VISION.

      THIS PRODUCT IS RELEASED AS TWO VERSIONS.  ONE VERSION NEAR
      THE TOP OF THE HOUR CONTAINING PRELIMINARY DATA FROM ALBUQUERQUE
      AND OTHER STATIONS.  A FINAL VERSION WITH ADDITIONAL DATA IS
      ISSUED ABOUT 10 MINUTES AFTER THE HOUR.

NMZ501-503-504-510>518-020600-
NORTHWEST PLATEAU/NORTHCENTRAL MOUNTAINS

CITY           SKY/WX    TMP DP  RH WIND       PRES   REMARKS
FARMINGTON     CLEAR     70  52  52 E14       30.20R
LOS ALAMOS     LGT RAIN  56  52  86 W3        30.39F
SANTA FE       LGT RAIN  58  54  86 N5        30.34R FOG
TAOS             N/A     57  54  88 E3        30.40F
ANGEL FIRE     MOCLDY    53  51  92 E3        30.50S

$$
NMZ402-403-502-505>509-020600-
WESTCENTRAL MOUNTAINS/SOUTHWEST MOUNTAINS

CITY           SKY/WX    TMP DP  RH WIND       PRES   REMARKS
GALLUP         CLOUDY    66  56  70 S7        30.28S
SILVER CITY    CLOUDY    64  63  94 N5        30.27S

$$
NMZ407-409-411-412-020600-
SOUTHERN DESERTS

CITY           SKY/WX    TMP DP  RH WIND       PRES   REMARKS
LORDSBURG      CLOUDY    64  61  88 CALM      30.19S
DEMING         MOCLDY    71  63  75 NE6       30.18R
LAS CRUCES     CLOUDY    71  62  73 SE12      30.19S
HOLLOMAN AFB   CLOUDY    70  66  88 NW5       30.16F
ALAMOGORDO     MOCLDY    68  66  94 N5        30.18F
T OR C         CLOUDY    72  62  71 SE8       30.20S

$$
NMZ519>523-020600-
CENTRAL VALLEYS/CENTRAL HIGHLANDS

CITY           SKY/WX    TMP DP  RH WIND       PRES   REMARKS
ALBUQUERQUE    TSTM      62  60  93 N9        30.29R VSB 1
DOUBLE EAGLE   CLOUDY    63  53  70 N21G31    30.30R THUNDER
MORIARTY ARPT  CLOUDY    63  58  83 S10       30.34S
CLINES CORNERS RAIN      54  53  97 VRB3      30.38S FOG
BELEN          MOCLDY    68  60  74 SE10      30.25R
SOCORRO        FAIR      71  60  67 SE6       30.23R

$$
NMZ524>526-539-540-020600-
SOUTHCENTRAL MOUNTAINS

CITY           SKY/WX    TMP DP  RH WIND       PRES   REMARKS
RUIDOSO        NOT AVBL

$$
NMZ527>531-020600-
NORTHEAST HIGHLANDS/NORTHEAST PLAINS

CITY           SKY/WX    TMP DP  RH WIND       PRES   REMARKS
LAS VEGAS      LGT RAIN  56  53  90 N10       30.41S
RATON          LGT RAIN  58  56  93 SW3       30.38S
CLAYTON        CLOUDY    65  57  75 CALM      30.29R

$$
NMZ532>537-020600-
EASTCENTRAL PLAINS

CITY           SKY/WX    TMP DP  RH WIND       PRES   REMARKS
TUCUMCARI      CLOUDY    74  46  36 S7        30.23R
CANNON AFB     CLOUDY    67  52  57 SE6       30.25S
CLOVIS AIRPORT NOT AVBL

$$
NMZ028-029-538-020600-
SOUTHEAST PLAINS

CITY           SKY/WX    TMP DP  RH WIND       PRES   REMARKS
ROSWELL        CLOUDY    72  65  78 NE3       30.19S
ARTESIA        MOCLDY    72  66  83 N5        30.19S
CARLSBAD       CLOUDY    73  64  73 CALM      30.17R
HOBBS          CLOUDY    73  46  38 NE9       30.21R


$$



USA.gov is the U.S. government's official web portal to all federal, state and local government web resources and services.